(113830) = 2002 TA227

Discovered at Anderson Mesa on 2002-10-08 by LONEOS.

Orbit

Orbit type: Main Belt

Note: WebGL enabled browser required.

epoch2024-03-31.0
epoch JD2460400.5
perihelion date2022-08-09.86067
perihelion JD2459801.36068
argument of perihelion (°)185.47476
ascending node (°)179.31101
inclination (°)6.50554
eccentricity0.1046841
perihelion distance (AU)2.0020457
Tisserand w.r.t. Jupiter3.6
ΔV w.r.t. Earth (km/sec)9.0
semimajor axis (AU)2.2361333
mean anomaly (°)176.59783
mean daily motion (°/day)0.29475250
aphelion distance (AU)2.470
period (years)3.34
P-vector [x]0.99650622
P-vector [y]0.08028204
P-vector [z]0.02302475
Q-vector [x]-0.08350742
Q-vector [y]0.95326526
Q-vector [z]0.29036505
absolute magnitude16.64
phase slope0.15
uncertainty0
referenceE2024-GI3
observations used919
oppositions16
arc length (days)8396
first opposition used2001
last opposition used2024
residual rms (arc-secs)0.66
perturbers coarse indicatorM-v
perturbers precise indicator003Ek
first observation date used2001-04-17.0
last observation date used2024-04-12.0
computer nameMPCLINUX
JD of orbit computation2456789.396613
perihelion JD uncertainty (days)7.8988E-05
argument of perihelion uncertainty (°)4.5894E-05
ascending node uncertainty (°)4.0682E-05
inclination uncertainty (°)7.3747E-06
eccentricity uncertainty 6.9370E-08
perihelion distance uncertainty (AU)1.5227E-07
Minimum Orbit Intersection Distances (in AU)
for orbit epoch: 2460400.5, reference: E2024-GI3
Mercury1.63746
Venus1.27695
Earth0.99976
Mars0.59323
Jupiter2.94015
Saturn6.79978
Uranus15.9823
Neptune27.778

Observations

920 total observations over interval: 2001 04 17.40566 – 2024 03 17.511589
These data are available for download (format description).

Date (UT) J2000 RA J2000 Dec Magn Location Ref
2001 04 17.40566 15 29 08.11 -11 24 17.0 20.7 V 691 – Steward Observatory, Kitt Peak-Spacewatch MPS 104275
2001 04 17.42743 15 29 07.19 -11 24 08.4 20.4 V 691 – Steward Observatory, Kitt Peak-Spacewatch MPS 104275
2001 04 17.44915 15 29 06.25 -11 24 00.0 20.4 V 691 – Steward Observatory, Kitt Peak-Spacewatch MPS 104275
2002 10 03.34199 03 27 53.19 +12 26 33.2 19.7   704 – Lincoln Laboratory ETS, New Mexico MPS 104275
2002 10 03.35729 03 27 53.12 +12 26 28.7 19.6   704 – Lincoln Laboratory ETS, New Mexico MPS 104275
2002 10 03.37304 03 27 52.91 +12 26 20.3 20.1   704 – Lincoln Laboratory ETS, New Mexico MPS 104275
2002 10 03.38840 03 27 52.75 +12 26 15.0 19.6   704 – Lincoln Laboratory ETS, New Mexico MPS 104275
2002 10 08.39245 03 26 47.87 +11 52 50.8 19.1 R 699 – Lowell Observatory-LONEOS MPS 64190
2002 10 08.40915 03 26 47.58 +11 52 42.7   699 – Lowell Observatory-LONEOS MPS 64190
2002 10 08.42582 03 26 47.27 +11 52 36.0   699 – Lowell Observatory-LONEOS MPS 64190
2002 10 08.44253 03 26 46.87 +11 52 28.5   699 – Lowell Observatory-LONEOS MPS 64190
2002 10 09.33439 03 26 29.78 +11 46 11.5 19.2   704 – Lincoln Laboratory ETS, New Mexico MPS 64190
2002 10 09.34998 03 26 29.51 +11 46 05.5 19.9   704 – Lincoln Laboratory ETS, New Mexico MPS 64190
2002 10 09.36584 03 26 29.05 +11 45 56.9 19.7   704 – Lincoln Laboratory ETS, New Mexico MPS 64190
2002 10 09.38154 03 26 28.74 +11 45 50.8 19.9   704 – Lincoln Laboratory ETS, New Mexico MPS 64190
2002 10 28.59816 03 14 14.15 +09 15 33.2 20.4   608 – Haleakala-AMOS MPS 68088
2002 10 28.60839 03 14 13.61 +09 15 28.6 20.3   608 – Haleakala-AMOS MPS 68088
2002 10 28.61886 03 14 13.00 +09 15 22.9 20.6   608 – Haleakala-AMOS MPS 68088
2002 11 06.33845 03 06 04.65 +08 07 18.3 18.3 R 699 – Lowell Observatory-LONEOS MPS 66179
2002 11 06.35828 03 06 03.46 +08 07 10.1   699 – Lowell Observatory-LONEOS MPS 66179
2002 11 06.37804 03 06 02.27 +08 07 01.1   699 – Lowell Observatory-LONEOS MPS 66179
2002 11 06.39783 03 06 00.97 +08 06 51.7   699 – Lowell Observatory-LONEOS MPS 66179
2002 11 07.27829 03 05 09.93 +08 00 24.3 19.1   704 – Lincoln Laboratory ETS, New Mexico MPS 66179
2002 11 07.29589 03 05 08.81 +08 00 16.9 19.4   704 – Lincoln Laboratory ETS, New Mexico MPS 66179
2002 11 07.31356 03 05 07.79 +08 00 08.3 19.3   704 – Lincoln Laboratory ETS, New Mexico MPS 66179
2002 11 07.33100 03 05 06.66 +08 00 00.5 19.4   704 – Lincoln Laboratory ETS, New Mexico MPS 66179
2002 11 07.34853 03 05 05.68 +07 59 52.4 19.1   704 – Lincoln Laboratory ETS, New Mexico MPS 66179
2002 11 11.24415 03 01 18.85 +07 32 32.3 19.0   704 – Lincoln Laboratory ETS, New Mexico MPS 66179
2002 11 11.26144 03 01 17.74 +07 32 24.9 18.7   704 – Lincoln Laboratory ETS, New Mexico MPS 66179
2002 11 11.29608 03 01 15.62 +07 32 11.3 19.5   704 – Lincoln Laboratory ETS, New Mexico MPS 66179
2002 11 11.31325 03 01 14.61 +07 32 04.9 19.3   704 – Lincoln Laboratory ETS, New Mexico MPS 66179
2002 11 11.44969 03 01 06.39 +07 31 08.6 18.9   644 – Palomar Mountain/NEAT MPS 66179
2002 11 11.47078 03 01 05.20 +07 31 00.5 19.0   644 – Palomar Mountain/NEAT MPS 66179
2002 11 11.49304 03 01 03.85 +07 30 51.3 18.7   644 – Palomar Mountain/NEAT MPS 66179
2002 11 30.22593 02 45 28.10 +06 01 38.8   704 – Lincoln Laboratory ETS, New Mexico MPS 406696
2002 11 30.24065 02 45 27.45 +06 01 36.1   704 – Lincoln Laboratory ETS, New Mexico MPS 406696
2002 11 30.25539 02 45 26.79 +06 01 33.1   704 – Lincoln Laboratory ETS, New Mexico MPS 406696
2002 12 07.22030 02 41 46.74 +05 49 43.0 18.9   704 – Lincoln Laboratory ETS, New Mexico MPS 68088
2002 12 07.23566 02 41 46.33 +05 49 41.8 19.8   704 – Lincoln Laboratory ETS, New Mexico MPS 68088
2002 12 07.25101 02 41 45.88 +05 49 41.6 19.4   704 – Lincoln Laboratory ETS, New Mexico MPS 68088
2002 12 07.26645 02 41 45.49 +05 49 41.0 19.1   704 – Lincoln Laboratory ETS, New Mexico MPS 68088
2002 12 07.28165 02 41 45.06 +05 49 40.3 19.5   704 – Lincoln Laboratory ETS, New Mexico MPS 68088
2004 03 18.34396 12 35 02.93 -02 42 38.6 19.6   704 – Lincoln Laboratory ETS, New Mexico MPS 103113
2004 03 18.35512 12 35 02.33 -02 42 32.3 19.6   704 – Lincoln Laboratory ETS, New Mexico MPS 103113
2004 03 18.36624 12 35 01.67 -02 42 27.3 19.9   704 – Lincoln Laboratory ETS, New Mexico MPS 103113
2004 03 18.38344 12 35 00.77 -02 42 17.5 20.2   704 – Lincoln Laboratory ETS, New Mexico MPS 103113
2004 03 18.39469 12 35 00.12 -02 42 12.8 19.8   704 – Lincoln Laboratory ETS, New Mexico MPS 103113
2004 03 27.33166 12 26 55.58 -01 23 11.2 19.6   704 – Lincoln Laboratory ETS, New Mexico MPS 103113
2004 03 27.34226 12 26 54.89 -01 23 06.0 19.5   704 – Lincoln Laboratory ETS, New Mexico MPS 103113
2004 03 27.35262 12 26 54.34 -01 22 59.7 19.4   704 – Lincoln Laboratory ETS, New Mexico MPS 103113
2004 03 27.36317 12 26 53.75 -01 22 54.5 19.7   704 – Lincoln Laboratory ETS, New Mexico MPS 103113
2004 03 27.37345 12 26 53.15 -01 22 50.2 19.8   704 – Lincoln Laboratory ETS, New Mexico MPS 103113
2004 04 12.23049 12 13 00.35 +00 50 53.2 20.3 V 691 – Steward Observatory, Kitt Peak-Spacewatch MPS 104275
2004 04 12.25818 12 12 58.97 +00 51 05.5 20.5 V 691 – Steward Observatory, Kitt Peak-Spacewatch MPS 104275
2004 04 12.28664 12 12 57.61 +00 51 18.8 19.9 V 691 – Steward Observatory, Kitt Peak-Spacewatch MPS 104275
2004 04 19.12554 12 08 01.89 +01 39 30.5 20.2 V 691 – Steward Observatory, Kitt Peak-Spacewatch MPS 105080
2004 04 19.15224 12 08 00.81 +01 39 40.8 20.3 V 691 – Steward Observatory, Kitt Peak-Spacewatch MPS 105080
2004 04 19.17857 12 07 59.74 +01 39 51.0 20.1 V 691 – Steward Observatory, Kitt Peak-Spacewatch MPS 105080
2004 04 19.26335 12 07 56.29 +01 40 23.1 20.0   704 – Lincoln Laboratory ETS, New Mexico MPS 105080
2004 04 19.27449 12 07 55.83 +01 40 28.0 20.5   704 – Lincoln Laboratory ETS, New Mexico MPS 105080
2004 04 19.28556 12 07 55.39 +01 40 32.1 20.4   704 – Lincoln Laboratory ETS, New Mexico MPS 105080
2005 07 30.37041 22 36 30.82 -01 25 44.5 18.5   644 – Palomar Mountain/NEAT MPS 138871
2005 07 30.39121 22 36 30.32 -01 25 48.8 18.7   644 – Palomar Mountain/NEAT MPS 138871
2005 07 30.41849 22 36 29.64 -01 25 54.9 18.6   644 – Palomar Mountain/NEAT MPS 138871
2005 08 25.89311 22 18 59.05 -04 27 30.4 17.9 R 599 – Campo Imperatore-CINEOS MPS 139634
2005 08 25.90471 22 18 58.45 -04 27 37.0 17.8 R 599 – Campo Imperatore-CINEOS MPS 139634
2005 08 25.92788 22 18 57.23 -04 27 49.9 17.9 R 599 – Campo Imperatore-CINEOS MPS 139634
2005 08 26.85656 22 18 10.73 -04 36 30.5 17.4 R 599 – Campo Imperatore-CINEOS MPS 139634
2005 08 26.86487 22 18 10.31 -04 36 35.5 18.0 R 599 – Campo Imperatore-CINEOS MPS 139634
2005 08 26.88140 22 18 09.41 -04 36 45.2 17.8 R 599 – Campo Imperatore-CINEOS MPS 139634
2005 08 27.31585 22 17 47.32 -04 40 50.0 18.0 R 699 – Lowell Observatory-LONEOS MPS 140170
2005 08 27.33786 22 17 46.16 -04 41 01.8   699 – Lowell Observatory-LONEOS MPS 140170
2005 08 27.35989 22 17 45.02 -04 41 14.3   699 – Lowell Observatory-LONEOS MPS 140170
2005 08 27.38193 22 17 43.77 -04 41 26.2   699 – Lowell Observatory-LONEOS MPS 140170
2005 09 02.30937 22 12 49.43 -05 38 31.6 19.5   608 – Haleakala-AMOS MPS 141054
2005 09 02.32017 22 12 48.88 -05 38 38.0 19.2   608 – Haleakala-AMOS MPS 141054
2005 09 02.33064 22 12 48.33 -05 38 43.8 19.2   608 – Haleakala-AMOS MPS 141054
2005 09 05.28173 22 10 27.08 -06 07 32.3 18.2 V 703 – Catalina Sky Survey MPS 141054
2005 09 05.28818 22 10 26.79 -06 07 35.1 18.5 V 703 – Catalina Sky Survey MPS 141054
2005 09 05.29464 22 10 26.40 -06 07 39.8 18.6 V 703 – Catalina Sky Survey MPS 141054
2005 09 05.30109 22 10 26.11 -06 07 43.7 18.4 V 703 – Catalina Sky Survey MPS 141054
2005 09 08.24829 22 08 12.50 -06 36 15.5 18.1   704 – Lincoln Laboratory ETS, New Mexico MPS 141054
2005 09 08.25948 22 08 11.97 -06 36 22.6 18.1   704 – Lincoln Laboratory ETS, New Mexico MPS 141054
2005 09 08.28245 22 08 10.86 -06 36 36.5 17.6   704 – Lincoln Laboratory ETS, New Mexico MPS 141054
2005 09 08.29368 22 08 10.32 -06 36 42.7 18.3   704 – Lincoln Laboratory ETS, New Mexico MPS 141054
2005 09 23.21937 21 59 48.32 -08 48 06.4 18.8 R 699 – Lowell Observatory-LONEOS MPS 142214
